Flag for Nepal Weather past 2 weeks in Pokhara, Nepal

Now
59 °F

Fog.


Feels Like: 59 °F
Forecast: 61 / 73 °F
Wind: No wind

Location: Kathmandu Airport

Current Time: Mar 29, 2015 at 6:58:24 AM

Latest Report: Mar 29, 2015 at 6:35 AM


Visibility: 2 mi

Pressure: 30.07 "Hg

Humidity: 94%

Dew point: 57 °F

Location of PokharaLocation

Historic Weather in Pokhara — Graph

°F

Pokhara temperature yesterday

Maximum temperature yesterday: 77 °F (at 1:35 PM)
Minimum temperature yesterday: 54 °F (at 6:35 AM)
Average temperature yesterday: 66 °F

Past Weeks' High & Low Weather Summary

 TemperatureHumidityPressure
High81 °F (Mar 25, 12:35 PM)100% (Mar 25, 3:35 AM)30.27 "Hg (Mar 25, 3:35 AM)
Low46 °F (Mar 19, 4:35 AM)25% (Mar 14, 12:35 PM)29.95 "Hg (Mar 17, 3:35 PM)
Average63 °F70%30.12 "Hg
* Reported Mar 14 5:35 AM — Mar 29 5:35 AM, Pokhara, Weather by CustomWeather, © 2015

Note: Actual official high and low records may vary slightly from our data, if they occured in-between our weather recording intervals... More about our weather records

Advertising

Pokhara weather history for previous 24 hours

 ConditionsComfort  
Time TempWeatherWind HumidityBarometerVisibility
5:35 AM
Sun, Mar 29
59 °FFog.No wind94%30.07 "Hg2 mi
4:35 AM61 °FPassing clouds.2 mph94%30.07 "Hg4 mi
3:35 AM61 °FPassing clouds.2 mph88%30.07 "Hg4 mi
2:35 AM61 °FPassing clouds.2 mph88%30.07 "Hg4 mi
12:35 AM61 °FPassing clouds.2 mph88%30.09 "Hg4 mi
11:35 PM
Sat, Mar 28
63 °FPassing clouds.5 mph88%30.09 "Hg4 mi
10:35 PM66 °FPassing clouds.3 mph83%30.09 "Hg4 mi
8:35 PM68 °FPassing clouds.6 mph78%30.07 "Hg4 mi
7:35 PM68 °FPassing clouds.9 mph73%30.04 "Hg4 mi
6:35 PM68 °FPassing clouds.12 mph73%30.01 "Hg4 mi
5:35 PM72 °FPassing clouds.10 mph65%30.01 "Hg5 mi
4:35 PM75 °FScattered clouds.10 mph61%30.01 "Hg5 mi
3:35 PM75 °FScattered clouds.7 mph54%30.01 "Hg5 mi
2:35 PM77 °FScattered clouds.7 mph47%30.04 "Hg5 mi
1:35 PM77 °FScattered clouds.3 mph51%30.07 "Hg5 mi
12:35 PM75 °FPassing clouds.3 mph41%30.09 "Hg5 mi
11:35 AM75 °FPassing clouds.No wind47%30.24 "Hg4 mi
10:35 AM72 °FPassing clouds.3 mph53%30.15 "Hg4 mi
9:35 AM68 °FFog.No wind69%30.15 "Hg3 mi
8:35 AM63 °FFog.No wind77%30.15 "Hg2 mi
7:35 AM57 °FFog.No wind94%30.12 "Hg2 mi
6:35 AM54 °FFog.No wind94%30.12 "Hg1 mi
Weather by CustomWeather, © 2015

See weather overviewHow to use our weather pages